Location: Ozark
(37.5425°N, 88.7628°W)
Time: 07:25:43
(UTC+00:00)

STARLINK-1022 - Pass Details

Date: 26 January 2020
Orbit: 548 x 551 km, 53.0° (Epoch: 21 February)

Event Time Altitude Azimuth Distance (km) Brightness Sun altitude
Exits shadow 12:32:57 - 257° (WSW) 2,331 6.3 -6.5°
Reaches altitude 10° 12:34:23 10° 264° (W) 1,816 5.7 -6.2°
Maximum altitude 12:38:03 30° 327° (NNW) 989 4.5 -5.5°
Drops below altitude 10° 12:41:45 10° 31° (NNE) 1,824 6.4 -4.8°
Sets 12:44:12 0° 42° (NE) 2,720 7.5 -4.4°
